This is the latest recevied weather packets stored in our database for station/object BARLOW-WX. If no packets are shown the sender has not sent any weather packets the latest 10 day(s).
| Time | Temp. | Humidity | Pressure | Rain* | Wind** | Luminosity | Snow |
|---|---|---|---|---|---|---|---|
| 1787886099 | 17.22° C | 83% | 989.6 hPa | 0 mm | - | - | - |
| 1787885486 | 17.78° C | 77% | 988.4 hPa | 0 mm | - | - | - |
| 1787884279 | 17.78° C | 79% | 989.2 hPa | 0 mm | - | - | - |
| 1787883380 | 18.33° C | 79% | 989.2 hPa | 0 mm | - | - | - |
| 1787882488 | 18.33° C | 79% | 989.2 hPa | 0 mm | - | - | - |
| 1787881577 | 18.33° C | 75% | 988.2 hPa | 0 mm | - | - | - |
| 1787880685 | 18.89° C | 75% | 988.2 hPa | 0 mm | - | - | - |
| 1787879775 | 19.44° C | 71% | 988.9 hPa | 0 mm | - | - | - |
| 1787878878 | 19.44° C | 71% | 988.9 hPa | 0 mm | - | - | - |
| 1787877975 | 20° C | 65% | 989.3 hPa | 0 mm | - | - | - |
| 1787877075 | 20° C | 65% | 989.3 hPa | 0 mm | - | - | - |
| 1787876180 | 20.56° C | 65% | 989.3 hPa | 0 mm | - | - | - |
| 1787875290 | 21.11° C | 65% | 989.3 hPa | 0 mm | - | - | - |
| 1787874374 | 21.67° C | 59% | 988.3 hPa | 0 mm | - | - | - |
| 1787873483 | 22.22° C | 59% | 988 hPa | 0 mm | - | - | - |
| 1787872578 | 22.22° C | 59% | 988 hPa | 0 mm | - | - | - |
| 1787871682 | 22.78° C | 59% | 988 hPa | 0 mm | - | - | - |
| 1787870778 | 23.33° C | 60% | 987.9 hPa | 0 mm | - | - | - |
| 1787869880 | 23.33° C | 57% | 988.1 hPa | 0 mm | - | - | - |
| 1787868981 | 23.89° C | 57% | 988.1 hPa | 0 mm | - | - | - |
| 1787868087 | 23.89° C | 57% | 988.1 hPa | 0 mm | - | - | - |
| 1787867182 | 24.44° C | 63% | 987.4 hPa | 0 mm | - | - | - |
| 1787866282 | 24.44° C | 75% | 987.6 hPa | 0 mm | - | - | - |
| 1787865379 | 22.22° C | 75% | 987.5 hPa | 0.76 mm | - | - | - |
| 1787864479 | 22.78° C | 75% | 987.5 hPa | 0.76 mm | - | - | - |
* Rain latest hour (hover to see other rain measurements)
** Current wind speed in m/s (hover to see current wind gust speed)